Regional Weather Roundup
Issued by NWS Albany, NY

Home | Current Version | Previous Version | Text Only | Print | Product List | Glossary On
Versions: 1 2 3 4 5 6 7 8 9 10 11 12 13 14 15 16 17 18 19 20 21 22 23 24 25 26 27 28 29 30 31 32 33 34 35 36 37 38 39 40 41 42 43 44 45 46 47
000
ASUS41 KALY 050510
RWRALY

NEW YORK STATE HOURLY WEATHER ROUNDUP
NATIONAL WEATHER SERVICE ALBANY NY
100 AM EDT SAT SEP 05 2015

NOTE: "FAIR" INDICATES FEW OR NO CLOUDS BELOW 12,000 FEET WITH NO
SIGNIFICANT WEATHER AND/OR NO OBSTRUCTIONS TO VISIBILITY.

NYZ032-033-038>043-046>054-057>066-NYZ062>081-050600-
EAST


CITY           SKY/WX    TMP DP  RH WIND       PRES   REMARKS
ALBANY         PTCLDY    66  58  75 CALM      30.23R
GLENS FALLS    CLEAR     60  58  92 CALM      30.23S
POUGHKEEPSIE   MOCLDY    68  62  81 N5        30.22R
NEWBURGH       PTCLDY    68  64  88 VRB6      30.24S
MONTGOMERY     CLOUDY    70  64  81 CALM      30.23R
WHITE PLAINS   MOCLDY    68  61  77 E9        30.23R
ISLIP          CLEAR     67  60  78 E9        30.21R
NEW YORK CITY  PTCLDY    71  62  73 E9        30.22R
CENTRAL PARK   PTCLDY    73  62  68 E9        30.24S
$$

NYZ005>009-017-018-044>046-055-056-050600-
CENTRAL


CITY           SKY/WX    TMP DP  RH WIND       PRES   REMARKS
FULTON         MOCLDY    71  64  78 VRB3      30.16S
SYRACUSE       PTCLDY    69  66  90 E6        30.16S
ROME           CLEAR     69  64  84 E8        30.21R
ELMIRA         PTCLDY    69  66  90 CALM      30.17S
BINGHAMTON     MOCLDY    68  65  90 SE6       30.23R
MONTICELLO     CLOUDY    66  64  94 SE6       30.27R
$$

NYZ026>034-041>043-050600-
NORTH


CITY           SKY/WX    TMP DP  RH WIND       PRES   REMARKS
WATERTOWN      CLEAR     59  56  89 E3        30.16F
FORT DRUM      NOT AVBL
MASSENA        CLEAR     54  49  83 CALM      30.21S
SARANAC LAKE   CLEAR     50  49  96 CALM      30.24F
PLATTSBURGH    CLEAR     59  53  80 CALM      30.21S
$$

NYZ001>004-010>016-019>021-050600-
WEST


CITY           SKY/WX    TMP DP  RH WIND       PRES   REMARKS
NIAGARA FALLS  CLEAR     68  59  73 E6        30.12S
BUFFALO        PTCLDY    70  62  76 NE7       30.13S
DUNKIRK        CLEAR     66  65  96 SW6       30.12R
JAMESTOWN      CLOUDY    64  61  88 CALM      30.17R VSB<1/4
WELLSVILLE     CLEAR     69  63  81 S7        30.23S
ROCHESTER      CLEAR     67  63  87 CALM      30.15S
PENN YAN       CLEAR     64  61  90 CALM      30.17S
$$

             KEY
       WCI = WIND CHILL INDEX
       VSB = VISIBILITY
       HX  = HEAT INDEX
$$


USA.gov is the U.S. government's official web portal to all federal, state and local government web resources and services.